Flag for U.S.A. Weather past 2 weeks in Barnstable, Massachusetts, U.S.A.

Now
69 °F

Sunny.


Feels Like: 69 °F
Forecast: 63 / 73 °F
Wind: 5 mph from South

Location: Barnstable Municipal-Boardman Airport

Current Time: Jun 30, 2015 at 8:57:23 PM

Latest Report: Jun 30, 2015 at 7:56 PM


Visibility: 10 mi

Pressure: 29.96 "Hg

Humidity: 79%

Dew point: 62 °F

Location of BarnstableLocation

Historic Weather in Barnstable — Graph

°F

Barnstable temperature yesterday

Maximum temperature yesterday: 72 °F (at 3:56 PM)
Minimum temperature yesterday: 54 °F (at 12:56 AM)
Average temperature yesterday: 63 °F

Past Weeks' High & Low Weather Summary

 TemperatureHumidityPressure
High80 °F (Jun 24, 2:56 PM)100% (Jun 16, 12:56 AM)30.17 "Hg (Jun 16, 12:56 AM)
Low45 °F (Jun 18, 4:56 AM)42% (Jun 18, 9:56 AM)29.59 "Hg (Jun 21, 4:56 PM)
Average65 °F80%29.93 "Hg
* Reported Jun 15 7:56 PM — Jun 30 7:56 PM, Barnstable, Weather by CustomWeather, © 2015

Note: Actual official high and low records may vary slightly from our data, if they occured in-between our weather recording intervals... More about our weather records

Advertising

Barnstable weather history for previous 24 hours

 ConditionsComfort  
Time TempWeatherWind HumidityBarometerVisibility
7:56 PM
Tue, Jun 30
69 °FSunny.5 mph79%29.96 "Hg10 mi
6:56 PM72 °FSunny.7 mph76%29.96 "Hg10 mi
5:56 PM74 °FSunny.9 mph67%29.97 "Hg10 mi
4:56 PM75 °FSunny.14 mph62%29.97 "Hg10 mi
3:56 PM76 °FSunny.13 mph62%29.98 "Hg10 mi
2:56 PM76 °FSunny.12 mph64%29.99 "Hg10 mi
1:56 PM76 °FSunny.15 mph62%29.99 "Hg10 mi
12:56 PM77 °FSunny.13 mph64%29.99 "Hg10 mi
11:56 AM76 °FSunny.14 mph69%30.00 "Hg10 mi
10:56 AM74 °FSunny.10 mph74%30.00 "Hg10 mi
9:56 AM74 °FSunny.9 mph69%30.00 "Hg10 mi
8:56 AM71 °FSunny.8 mph78%30.01 "Hg10 mi
7:56 AM70 °FPassing clouds.6 mph81%30.01 "Hg10 mi
6:56 AM67 °FPassing clouds.5 mph90%29.99 "Hg10 mi
5:56 AM61 °FClear.No wind93%29.98 "Hg10 mi
4:56 AM62 °FClear.No wind93%29.98 "Hg8 mi
3:56 AM61 °FClear.3 mph97%29.97 "Hg7 mi
2:56 AM62 °FClear.5 mph93%29.96 "Hg10 mi
1:56 AM63 °FClear.7 mph93%29.96 "Hg10 mi
12:56 AM64 °FClear.8 mph90%29.95 "Hg10 mi
11:56 PM
Mon, Jun 29
65 °FClear.8 mph87%29.95 "Hg10 mi
10:56 PM66 °FClear.13 mph84%29.93 "Hg10 mi
9:56 PM65 °FClear.9 mph85%29.94 "Hg10 mi
8:56 PM65 °FSunny.9 mph85%29.91 "Hg10 mi
Weather by CustomWeather, © 2015

See weather overviewHow to use our weather pages